Date String (YYYY-MM-DD hh:mm:ss) UTC,Instrument flags,Ambient pressure (hPa),Sample flow (lpm),Bypass flow (lpm),Sample temperature (°C),Ambient temperature (°C),ASC tube jacket temperature (°C),LED temperature (°C),Box temperature (°C),Sample RH (%),Span deviation,Mass concentration (μg/m³),Mass concentration (μg/m³),Mass concentration (μg/m³)
DateTimeUTC,F1_M11,P_M11,Q1_M11,Q2_M11,T1_M11,T2_M11,T3_M11,T4_M11,T5_M11,U1_M11,ZSPAN_M11,X0_M11,X2_M11,X1_M11
2022-09-09 15:00:00,,0827.7,5.01,0.00,30.4,29.1,00.0,39.2,32.2,23.2,0001.3,0016.72,0011.75,0010.91
2022-09-09 15:01:00,,0827.7,4.99,0.00,30.4,29.1,00.0,39.2,32.2,23.2,0001.2,0016.74,0011.74,0010.91
2022-09-09 15:02:00,,0827.7,5.01,0.00,30.4,29.1,00.0,39.2,32.2,23.2,0001.1,0016.82,0011.75,0010.93
2022-09-09 15:03:00,,0827.7,5.00,0.00,30.4,29.1,00.0,39.3,32.2,23.3,0001.1,0016.54,0011.80,0010.94
2022-09-09 15:04:00,,0827.7,5.01,0.00,30.4,29.1,00.0,39.3,32.2,23.3,0001.6,0016.18,0011.82,0010.96
2022-09-09 15:05:00,,0827.7,4.99,0.00,30.4,29.1,00.0,39.3,32.2,23.4,0002.1,0015.74,0011.81,0010.96
2022-09-09 15:06:00,,0827.7,5.01,0.00,30.4,29.1,00.0,39.3,32.2,23.4,0002.4,0016.13,0011.81,0010.95
2022-09-09 15:07:00,,0827.7,4.98,0.00,30.4,29.1,00.0,39.3,32.2,23.3,0002.2,0016.42,0011.77,0010.94
2022-09-09 15:08:00,,0827.7,5.00,0.00,30.4,29.1,00.0,39.3,32.2,23.3,0002.6,0016.53,0011.82,0010.95
2022-09-09 15:09:00,,0827.7,5.00,0.00,30.4,29.1,00.0,39.3,32.2,23.2,0002.8,0016.89,0011.88,0010.97
2022-09-09 15:10:00,,0827.6,5.01,0.00,30.4,29.1,00.0,39.3,32.2,23.3,0003.0,0017.02,0011.88,0010.97
2022-09-09 15:11:00,,0827.6,5.00,0.00,30.4,29.1,00.0,39.3,32.2,23.3,0003.5,0017.25,0011.87,0010.97
2022-09-09 15:12:00,,0827.6,4.98,0.00,30.4,29.1,00.0,39.3,32.2,23.2,0003.1,0017.83,0011.87,0010.97
2022-09-09 15:13:00,,0827.7,5.00,0.00,30.4,29.1,00.0,39.3,32.2,23.2,0003.6,0018.69,0011.90,0010.98
2022-09-09 15:14:00,,0827.7,5.00,0.00,30.4,29.1,00.0,39.3,32.2,23.2,0003.7,0018.81,0011.88,0010.98
2022-09-09 15:15:00,,0827.6,5.01,0.00,30.5,29.1,00.0,39.3,32.2,23.3,0003.5,0018.83,0011.88,0010.95
2022-09-09 15:16:00,,0827.6,5.01,0.00,30.5,29.1,00.0,39.3,32.2,23.3,0003.3,0018.92,0011.90,0010.94
2022-09-09 15:17:00,,0827.5,4.99,0.00,30.5,29.1,00.0,39.3,32.2,23.3,0003.3,0018.43,0011.88,0010.93
2022-09-09 15:18:00,,0827.5,5.01,0.00,30.5,29.1,00.0,39.3,32.3,23.2,0003.1,0017.76,0011.87,0010.93
2022-09-09 15:19:00,,0827.5,5.01,0.00,30.5,29.1,00.0,39.3,32.3,23.2,0002.9,0017.57,0011.81,0010.93
2022-09-09 15:20:00,,0827.5,5.00,0.00,30.5,29.2,00.0,39.3,32.3,23.3,0003.1,0017.32,0011.73,0010.91
2022-09-09 15:21:00,,0827.5,4.99,0.00,30.5,29.2,00.0,39.3,32.3,23.3,0003.2,0017.37,0011.72,0010.91
2022-09-09 15:22:00,,0827.5,5.00,0.00,30.5,29.2,00.0,39.3,32.3,23.3,0003.4,0017.14,0011.69,0010.90
2022-09-09 15:23:00,,0827.6,5.00,0.00,30.5,29.2,00.0,39.3,32.3,23.2,0003.8,0016.89,0011.71,0010.90
2022-09-09 15:24:00,,0827.5,4.99,0.00,30.5,29.2,00.0,39.3,32.3,23.2,0003.6,0016.24,0011.65,0010.88
2022-09-09 15:25:00,,0827.5,5.00,0.00,30.5,29.2,00.0,39.3,32.3,23.2,0003.2,0016.20,0011.60,0010.85
2022-09-09 15:26:00,,0827.6,5.01,0.00,30.5,29.2,00.0,39.3,32.3,23.2,0003.1,0016.16,0011.56,0010.84
2022-09-09 15:27:00,,0827.5,4.99,0.00,30.5,29.2,00.0,39.3,32.3,23.3,0002.9,0016.22,0011.54,0010.84
2022-09-09 15:28:00,,0827.5,5.00,0.00,30.5,29.2,00.0,39.3,32.3,23.3,0002.6,0016.21,0011.53,0010.85
2022-09-09 15:29:00,,0827.5,5.00,0.00,30.5,29.2,00.0,39.3,32.3,23.3,0002.6,0016.37,0011.55,0010.84
2022-09-09 15:30:00,,0827.6,5.01,0.00,30.5,29.2,00.0,39.3,32.3,23.2,0002.5,0016.63,0011.57,0010.83
2022-09-09 15:31:00,,0827.6,5.00,0.00,30.5,29.3,00.0,39.3,32.3,23.2,0002.2,0016.74,0011.61,0010.83
2022-09-09 15:32:00,,0827.5,4.99,0.00,30.5,29.3,00.0,39.3,32.3,23.3,0002.0,0016.45,0011.56,0010.80
2022-09-09 15:33:00,,0827.5,5.01,0.00,30.5,29.2,00.0,39.3,32.3,23.3,0001.9,0016.40,0011.55,0010.79
2022-09-09 15:34:00,,0827.5,5.00,0.00,30.5,29.3,00.0,39.4,32.3,23.2,0001.3,0016.38,0011.55,0010.77
2022-09-09 15:35:00,,0827.5,5.00,0.00,30.5,29.3,00.0,39.4,32.3,23.2,0001.0,0015.92,0011.50,0010.73
2022-09-09 15:36:00,,0827.5,4.99,0.00,30.6,29.3,00.0,39.4,32.3,23.2,0000.7,0015.53,0011.51,0010.71
2022-09-09 15:37:00,,0827.5,4.99,0.00,30.6,29.3,00.0,39.4,32.3,23.0,0001.2,0015.47,0011.53,0010.70
2022-09-09 15:38:00,,0827.5,5.00,0.00,30.6,29.3,00.0,39.4,32.3,23.0,0001.3,0015.93,0011.55,0010.68
2022-09-09 15:39:00,,0827.5,5.00,0.00,30.6,29.2,00.0,39.4,32.3,23.0,0001.5,0016.26,0011.51,0010.65
2022-09-09 15:40:00,,0827.5,5.00,0.00,30.6,29.2,00.0,39.4,32.3,23.1,0001.8,0016.18,0011.45,0010.59
2022-09-09 15:41:00,,0827.5,5.00,0.00,30.6,29.2,00.0,39.4,32.3,23.1,0002.1,0015.94,0011.36,0010.56
2022-09-09 15:42:00,,0827.5,5.00,0.00,30.6,29.2,00.0,39.4,32.3,23.0,0002.2,0015.77,0011.34,0010.55
2022-09-09 15:43:00,,0827.5,5.01,0.00,30.6,29.2,00.0,39.4,32.3,23.0,0002.0,0015.94,0011.33,0010.53
2022-09-09 15:44:00,,0827.5,5.01,0.00,30.6,29.2,00.0,39.4,32.3,23.1,0001.9,0016.79,0011.34,0010.52
2022-09-09 15:45:00,,0827.5,5.00,0.00,30.6,29.3,00.0,39.4,32.3,23.0,0002.3,0017.02,0011.37,0010.52
2022-09-09 15:46:00,,0827.5,4.99,0.00,30.6,29.3,00.0,39.4,32.4,23.1,0002.9,0017.06,0011.38,0010.53
2022-09-09 15:47:00,,0827.5,4.98,0.00,30.6,29.3,00.0,39.4,32.4,22.9,0003.1,0017.12,0011.40,0010.54
2022-09-09 15:48:00,,0827.5,5.01,0.00,30.6,29.3,00.0,39.4,32.4,22.7,0003.2,0017.15,0011.40,0010.54
2022-09-09 15:49:00,,0827.6,5.00,0.00,30.6,29.3,00.0,39.4,32.4,22.8,0003.4,0017.20,0011.34,0010.54
2022-09-09 15:50:00,,0827.5,5.00,0.00,30.6,29.3,00.0,39.4,32.4,22.8,0003.6,0016.70,0011.34,0010.55
2022-09-09 15:51:00,,0827.6,5.00,0.00,30.6,29.3,00.0,39.4,32.4,22.7,0003.4,0016.82,0011.40,0010.61
2022-09-09 15:52:00,,0827.5,4.99,0.00,30.6,29.3,00.0,39.4,32.4,22.7,0003.4,0016.92,0011.46,0010.64
2022-09-09 15:53:00,,0827.5,4.99,0.00,30.6,29.3,00.0,39.4,32.4,22.7,0003.4,0016.95,0011.45,0010.65
2022-09-09 15:54:00,,0827.6,5.00,0.00,30.6,29.3,00.0,39.4,32.4,22.7,0003.4,0016.87,0011.45,0010.65
2022-09-09 15:55:00,,0827.6,5.00,0.00,30.6,29.3,00.0,39.4,32.4,22.6,0003.6,0015.94,0011.43,0010.66
2022-09-09 15:56:00,,0827.6,5.00,0.00,30.6,29.4,00.0,39.4,32.4,22.6,0003.4,0015.67,0011.42,0010.68
2022-09-09 15:57:00,,0827.5,5.00,0.00,30.6,29.3,00.0,39.4,32.4,22.7,0003.1,0015.60,0011.39,0010.69
2022-09-09 15:58:00,,0827.6,5.00,0.00,30.6,29.3,00.0,39.4,32.4,22.8,0002.9,0015.74,0011.41,0010.71
2022-09-09 15:59:00,,0827.5,5.00,0.00,30.6,29.3,00.0,39.4,32.4,22.8,0003.0,0015.76,0011.42,0010.72
